This is the latest recevied weather packets stored in our database for station/object AI5YA-13. If no packets are shown the sender has not sent any weather packets the latest 10 day(s).
| Time | Temp. | Humidity | Pressure | Rain* | Wind** | Luminosity | Snow |
|---|---|---|---|---|---|---|---|
| 1777830757 | 22.22° C | 43% | 1021 hPa | 0 mm | - | 755 W/m² | - |
| 1777830452 | 21.67° C | 44% | 1021.4 hPa | 0 mm | - | 773 W/m² | - |
| 1777830150 | 21.67° C | 43% | 1021.1 hPa | 0 mm | - | 763 W/m² | - |
| 1777829845 | 21.67° C | 43% | 1021.3 hPa | 0 mm | - | 803 W/m² | - |
| 1777829541 | 21.67° C | 45% | 1021.7 hPa | 0 mm | - | 803 W/m² | - |
| 1777829238 | 21.11° C | 44% | 1021.7 hPa | 0 mm | - | 806 W/m² | - |
| 1777828935 | 21.67° C | 44% | 1021.4 hPa | 0 mm | - | 788 W/m² | - |
| 1777828631 | 21.11° C | 45% | 1021.7 hPa | 0 mm | - | 799 W/m² | - |
| 1777828329 | 21.11° C | 44% | 1021.8 hPa | 0 mm | - | 820 W/m² | - |
| 1777828026 | 21.67° C | 46% | 1021.8 hPa | 0 mm | - | 814 W/m² | - |
| 1777827723 | 21.11° C | 45% | 1022.1 hPa | 0 mm | - | 808 W/m² | - |
| 1777827420 | 21.11° C | 46% | 1021.9 hPa | 0 mm | - | 818 W/m² | - |
| 1777827116 | 21.67° C | 46% | 1022 hPa | 0 mm | - | 817 W/m² | - |
| 1777826813 | 20.56° C | 48% | 1022.1 hPa | 0 mm | - | 830 W/m² | - |
| 1777826510 | 20.56° C | 48% | 1022.1 hPa | 0 mm | - | 823 W/m² | - |
| 1777826206 | 20.56° C | 48% | 1022.2 hPa | 0 mm | - | 788 W/m² | - |
| 1777825904 | 20° C | 50% | 1022.2 hPa | 0 mm | - | 788 W/m² | - |
| 1777825601 | 20° C | 49% | 1022.3 hPa | 0 mm | - | 769 W/m² | - |
| 1777825299 | 20° C | 49% | 1022.4 hPa | 0 mm | - | 754 W/m² | - |
| 1777824996 | 20.56° C | 49% | 1022.4 hPa | 0 mm | - | 763 W/m² | - |
| 1777824691 | 20° C | 50% | 1022.4 hPa | 0 mm | - | 709 W/m² | - |
| 1777824389 | 20° C | 50% | 1022.3 hPa | 0 mm | - | 716 W/m² | - |
| 1777824084 | 19.44° C | 51% | 1022.3 hPa | 0 mm | - | 686 W/m² | - |
| 1777823781 | 19.44° C | 50% | 1022.4 hPa | 0 mm | - | 655 W/m² | - |
| 1777823478 | 19.44° C | 52% | 1022.6 hPa | 0 mm | - | 648 W/m² | - |
* Rain latest hour (hover to see other rain measurements)
** Current wind speed in m/s (hover to see current wind gust speed)